This demonstration page uses our WeatherBlox Daily Observations layout. Learn more.

39.29038, -76.61219

Hourly Observations for October 11, 2019

Temp ( °F °C ) Dew Point ( °F °C ) Humidity (%) Winds ( mph kmh ) Pressure ( in mb ) Visibility ( mi km ) Precip ( " mm )
12:54 am 00:54 undefined 64 17.8 41 5 43 43 undefined N/A 30.16 1021 N/A 0 0
1:54 am 01:54 undefined 63 17.2 39 3.9 41 41 undefined N/A 30.16 1021 N/A 0 0
2:54 am 02:54 undefined 61 16.1 37 2.8 41 41 undefined N/A 30.15 1021 N/A 0 0
3:54 am 03:54 undefined 60 15.6 36 2.2 41 41 undefined N/A 30.15 1021 N/A 0 0
4:54 am 04:54 undefined 59 15 37 2.8 44 44 undefined N/A 30.16 1021 N/A 0 0
5:54 am 05:54 undefined 57 13.9 36 2.2 45 45 undefined N/A 30.16 1021 N/A 0 0
6:54 am 06:54 undefined 57 13.9 33 0.6 41 41 undefined N/A 30.16 1021 N/A 0 0
7:54 am 07:54 undefined 57 13.9 34 1.1 42 42 undefined N/A 30.16 1021 N/A 0 0
8:54 am 08:54 undefined 59 15 34 1.1 39 39 undefined N/A 30.16 1021 N/A 0 0
9:54 am 09:54 undefined 63 17.2 37 2.8 38 38 undefined N/A 30.16 1021 N/A 0 0
10:54 am 10:54 undefined 65 18.3 41 5 42 42 undefined N/A 30.16 1021 N/A 0 0
11:54 am 11:54 undefined 68 20 43 6.1 40 40 undefined N/A 30.13 1020 N/A 0 0
12:54 pm 12:54 undefined 70 21.1 44 6.7 39 39 undefined N/A 30.1 1019 N/A 0 0
1:54 pm 13:54 undefined 72 22.2 45 7.2 38 38 undefined N/A 30.08 1019 N/A 0 0
2:54 pm 14:54 undefined 73 22.8 46 7.8 38 38 undefined N/A 30.05 1018 N/A 0 0
3:54 pm 15:54 undefined 73 22.8 46 7.8 38 38 undefined N/A 30.04 1017 N/A 0 0
4:54 pm 16:54 undefined 72 22.2 46 7.8 40 40 undefined N/A 30.05 1018 N/A 0 0
5:54 pm 17:54 undefined 72 22.2 46 7.8 40 40 undefined N/A 30.04 1017 N/A 0 0
6:54 pm 18:54 undefined 71 21.7 48 8.9 44 44 undefined N/A 30.06 1018 N/A 0 0
7:54 pm 19:54 undefined 69 20.6 48 8.9 47 47 undefined N/A 30.05 1018 N/A 0 0
8:54 pm 20:54 undefined 65 18.3 49 9.4 56 56 undefined N/A 30.06 1018 N/A 0 0
9:54 pm 21:54 undefined 64 17.8 49 9.4 58 58 undefined N/A 30.07 1018 N/A 0 0
10:54 pm 22:54 undefined 63 17.2 50 10 63 63 undefined N/A 30.06 1018 N/A 0 0
11:54 pm 23:54 undefined 63 17.2 45 7.2 52 52 undefined N/A 30.06 1018 N/A 0 0

Powered by AerisWeather